Location: Luxembourg
(49.6117°N, 6.1300°E)
Time: 02:27:08
(UTC+01:00)

N. Korean satellite - Pass Details

Date: 06 December 2021
Orbit: 446 x 492 km, 97.3° (Epoch: 16 January)

Event Time Altitude Azimuth Distance (km) Brightness Sun altitude
Rises 06:19:09 0° 8° (N) 2,469 10.1 -18.1°
Reaches altitude 10° 06:21:14 10° 4° (N) 1,588 9.1 -17.8°
Maximum altitude 06:24:32 51° 287° (WNW) 572 6.5 -17.3°
Drops below altitude 10° 06:27:48 10° 211° (SSW) 1,571 9.0 -16.8°
Sets 06:29:52 0° 206° (SSW) 2,445 10.0 -16.4°
